Location: Haut Kerinec
(48.0623°N, 4.4081°W)
Time: 11:35:32
(UTC+00:00)

STARLINK-1217 - Pass Details

Date: 01 June 2020
Orbit: 548 x 551 km, 53.0° (Epoch: 02 July)

Event Time Altitude Azimuth Distance (km) Brightness Sun altitude
Rises 23:17:23 0° 296° (WNW) 2,727 7.8 -18.5°
Reaches altitude 10° 23:19:40 10° 292° (WNW) 1,831 6.7 -18.6°
Maximum altitude 23:23:43 54° 215° (SW) 676 3.8 -18.8°
Enters shadow 23:24:22 48° 180° (S) 729 3.8 -18.8°
